Location: ?
(35.4214°N, 139.3011°E)
Time: 22:20:16
(UTC+00:00)

GPS 2-04 Rocket1 - Pass Details

Date: 14 July 2020
Orbit: 418 x 549 km, 35.6° (Epoch: 10 August)

Event Time Altitude Azimuth Distance (km) Brightness Sun altitude
Rises 11:09:49 0° 214° (SW) 2,354 6.0 -13.0°
Reaches altitude 10° 11:12:29 10° 193° (SSW) 1,484 4.8 -13.4°
Enters shadow 11:13:15 13° 181° (S) 1,308 4.4 -13.5°
